Terminal Aerodrome Forecast
Issued by NWS

Home | Current Version | Previous Version | Text Only | Print | Product List | Glossary On
Versions: 1 2 3 4 5 6 7 8 9 10 11 12 13 14 15 16 17 18 19 20 21 22 23 24 25 26 27 28 29 30 31 32 33 34 35 36 37
000
FTUS45 KGJT 132342
TAFRIL
TAF
KRIL 132342Z 1400/1424 36008G15KT P6SM SCT100 SCT200
     FM140300 13004KT P6SM FEW100 SCT200
     FM140600 VRB03KT P6SM FEW250
     FM141900 30008KT P6SM SCT100 SCT250=

USA.gov is the U.S. government's official web portal to all federal, state and local government web resources and services.